• In Kazakhstan
  • List of Countries
  • For 7 days
  • Water Temperature
  • Satellite Maps
  • Weather Map
  • News
  • Weather Widgets
  • user-avatar
    Login

    Hourly Weather Baloda Bazar

    Today, 25 November, Saturday

    Time Temperature Precipitation Wind Pressure Humidity
    00:00 +19°C° 0 mm 1 mps 739 mmHg 38%
    01:00 +18°C° 0 mm 1 mps 739 mmHg 38%
    02:00 +18°C° 0 mm 1 mps 739 mmHg 38%
    03:00 +16°C° 0 mm 1 mps 739 mmHg 38%
    04:00 +16°C° 0 mm 1 mps 739 mmHg 39%
    05:00 +15°C° 0 mm 1 mps 739 mmHg 36%
    06:00 +18°C° 0 mm 1 mps 740 mmHg 34%
    07:00 +20°C° 0 mm 1 mps 740 mmHg 33%
    08:00 +21°C° 0 mm 1 mps 741 mmHg 31%
    09:00 +24°C° 0 mm 1 mps 741 mmHg 27%
    10:00 +26°C° 0 mm 1 mps 741 mmHg 24%
    11:00 +28°C° 0 mm 2 mps 740 mmHg 20%
    12:00 +29°C° 0 mm 1 mps 740 mmHg 19%
    13:00 +30°C° 0 mm 1 mps 739 mmHg 18%
    14:00 +31°C° 0 mm 1 mps 739 mmHg 16%
    15:00 +29°C° 0 mm 1 mps 739 mmHg 19%
    16:00 +27°C° 0 mm 1 mps 739 mmHg 22%
    17:00 +25°C° 0 mm 1 mps 738 mmHg 24%
    18:00 +24°C° 0 mm 1 mps 739 mmHg 26%
    19:00 +23°C° 0 mm 1 mps 739 mmHg 27%
    20:00 +20°C° 0 mm 0 mps 740 mmHg 28%
    21:00 +21°C° 0 mm 1 mps 740 mmHg 30%
    22:00 +20°C° 0 mm 1 mps 740 mmHg 31%
    23:00 +20°C° 0 mm 1 mps 740 mmHg 32%

    Tomorrow, 26 November, Sunday

    Time Temperature Precipitation Wind Pressure Humidity
    00:00 +19°C° 0 mm 1 mps 740 mmHg 33%
    01:00 +19°C° 0 mm 1 mps 740 mmHg 34%
    02:00 +18°C° 0 mm 1 mps 739 mmHg 36%
    03:00 +18°C° 0 mm 1 mps 739 mmHg 36%
    04:00 +16°C° 0 mm 1 mps 739 mmHg 37%
    05:00 +16°C° 0 mm 1 mps 739 mmHg 38%
    06:00 +19°C° 0 mm 1 mps 740 mmHg 36%
    07:00 +20°C° 0 mm 1 mps 741 mmHg 34%
    08:00 +22°C° 0 mm 1 mps 741 mmHg 32%
    09:00 +24°C° 0 mm 1 mps 741 mmHg 29%
    10:00 +27°C° 0 mm 1 mps 741 mmHg 26%
    11:00 +29°C° 0 mm 1 mps 741 mmHg 22%
    12:00 +30°C° 0 mm 1 mps 740 mmHg 21%
    13:00 +31°C° 0 mm 1 mps 739 mmHg 20%
    14:00 +32°C° 0 mm 1 mps 738 mmHg 18%
    15:00 +29°C° 0 mm 1 mps 738 mmHg 21%
    16:00 +27°C° 0 mm 1 mps 738 mmHg 24%
    17:00 +25°C° 0 mm 1 mps 738 mmHg 27%
    18:00 +24°C° 0 mm 1 mps 739 mmHg 28%
    19:00 +23°C° 0 mm 1 mps 739 mmHg 30%
    20:00 +22°C° 0 mm 1 mps 739 mmHg 31%
    21:00 +22°C° 0 mm 1 mps 739 mmHg 33%
    22:00 +21°C° 0 mm 1 mps 739 mmHg 35%
    23:00 +20°C° 0 mm 1 mps 739 mmHg 37%

    Day after tomorrow, 27 November, Monday

    Time Temperature Precipitation Wind Pressure Humidity
    00:00 +20°C° 0 mm 1 mps 739 mmHg 38%
    01:00 +19°C° 0 mm 1 mps 739 mmHg 39%
    02:00 +19°C° 0 mm 1 mps 738 mmHg 40%
    03:00 +18°C° 0 mm 1 mps 738 mmHg 41%
    04:00 +18°C° 0 mm 1 mps 738 mmHg 41%
    05:00 +16°C° 0 mm 1 mps 738 mmHg 42%
    06:00 +19°C° 0 mm 1 mps 739 mmHg 39%
    07:00 +21°C° 0 mm 1 mps 740 mmHg 37%
    08:00 +22°C° 0 mm 1 mps 740 mmHg 34%
    09:00 +25°C° 0 mm 1 mps 740 mmHg 31%
    10:00 +27°C° 0 mm 1 mps 740 mmHg 27%
    11:00 +30°C° 0 mm 1 mps 740 mmHg 24%
    12:00 +30°C° 0 mm 1 mps 739 mmHg 23%
    13:00 +31°C° 0 mm 1 mps 738 mmHg 22%
    14:00 +31°C° 0 mm 1 mps 737 mmHg 21%
    15:00 +29°C° 0 mm 1 mps 737 mmHg 24%
    16:00 +27°C° 0 mm 1 mps 737 mmHg 27%
    17:00 +25°C° 0 mm 1 mps 737 mmHg 30%
    18:00 +24°C° 0 mm 1 mps 737 mmHg 31%
    19:00 +24°C° 0 mm 1 mps 738 mmHg 32%
    20:00 +23°C° 0 mm 1 mps 739 mmHg 33%
    21:00 +22°C° 0 mm 1 mps 738 mmHg 34%
    22:00 +21°C° 0 mm 1 mps 738 mmHg 36%
    23:00 +21°C° 0 mm 1 mps 738 mmHg 37%

    28 November, Tuesday

    Time Temperature Precipitation Wind Pressure Humidity
    00:00 +20°C° 0 mm 1 mps 738 mmHg 38%
    01:00 +19°C° 0 mm 1 mps 738 mmHg 38%
    02:00 +19°C° 0 mm 1 mps 737 mmHg 39%
    03:00 +18°C° 0 mm 1 mps 738 mmHg 39%
    04:00 +18°C° 0 mm 1 mps 738 mmHg 39%
    05:00 +16°C° 0 mm 1 mps 738 mmHg 40%
    06:00 +19°C° 0 mm 1 mps 739 mmHg 37%
    07:00 +21°C° 0 mm 1 mps 739 mmHg 35%
    08:00 +22°C° 0 mm 1 mps 740 mmHg 33%
    09:00 +25°C° 0 mm 1 mps 740 mmHg 29%
    10:00 +27°C° 0 mm 1 mps 740 mmHg 26%
    11:00 +30°C° 0 mm 1 mps 740 mmHg 22%
    12:00 +30°C° 0 mm 1 mps 739 mmHg 22%
    13:00 +29°C° 0 mm 0 mps 738 mmHg 21%
    14:00 +29°C° 0 mm 0 mps 737 mmHg 20%
    15:00 +29°C° 0 mm 1 mps 737 mmHg 23%
    16:00 +27°C° 0 mm 1 mps 737 mmHg 25%
    17:00 +25°C° 0 mm 1 mps 737 mmHg 28%
    18:00 +24°C° 0 mm 1 mps 738 mmHg 29%
    19:00 +23°C° 0 mm 1 mps 738 mmHg 30%
    20:00 +23°C° 0 mm 1 mps 739 mmHg 32%
    21:00 +22°C° 0 mm 1 mps 739 mmHg 33%
    22:00 +21°C° 0 mm 1 mps 739 mmHg 34%
    23:00 +20°C° 0 mm 1 mps 739 mmHg 35%

    29 November, Wednesday

    Time Temperature Precipitation Wind Pressure Humidity
    00:00 +20°C° 0 mm 1 mps 738 mmHg 36%
    01:00 +19°C° 0 mm 1 mps 738 mmHg 37%
    02:00 +19°C° 0 mm 1 mps 738 mmHg 38%
    03:00 +18°C° 0 mm 1 mps 738 mmHg 39%
    04:00 +18°C° 0 mm 1 mps 739 mmHg 39%
    05:00 +16°C° 0 mm 1 mps 739 mmHg 39%
    06:00 +19°C° 0 mm 1 mps 740 mmHg 37%
    07:00 +21°C° 0 mm 1 mps 741 mmHg 35%
    08:00 +22°C° 0 mm 1 mps 741 mmHg 33%
    09:00 +25°C° 0 mm 1 mps 741 mmHg 30%
    10:00 +27°C° 0 mm 1 mps 741 mmHg 27%
    11:00 +28°C° 0 mm 0 mps 740 mmHg 24%
    12:00 +28°C° 0 mm 0 mps 740 mmHg 23%
    13:00 +29°C° 0 mm 0 mps 739 mmHg 22%
    14:00 +31°C° 0 mm 1 mps 738 mmHg 21%
    15:00 +29°C° 0 mm 1 mps 738 mmHg 23%
    16:00 +27°C° 0 mm 1 mps 738 mmHg 26%
    17:00 +25°C° 0 mm 1 mps 738 mmHg 29%
    18:00 +24°C° 0 mm 1 mps 739 mmHg 30%
    19:00 +23°C° 0 mm 1 mps 739 mmHg 31%
    20:00 +23°C° 0 mm 1 mps 739 mmHg 32%
    21:00 +22°C° 0 mm 1 mps 739 mmHg 34%
    22:00 +21°C° 0 mm 1 mps 739 mmHg 36%
    23:00 +21°C° 0 mm 1 mps 739 mmHg 37%

    30 November, Thursday

    Time Temperature Precipitation Wind Pressure Humidity
    00:00 +20°C° 0 mm 1 mps 739 mmHg 39%
    01:00 +19°C° 0 mm 1 mps 738 mmHg 40%
    02:00 +19°C° 0 mm 1 mps 738 mmHg 41%
    03:00 +18°C° 0 mm 1 mps 738 mmHg 42%
    04:00 +18°C° 0 mm 1 mps 739 mmHg 42%
    05:00 +16°C° 0 mm 1 mps 739 mmHg 43%
    06:00 +19°C° 0 mm 1 mps 739 mmHg 41%
    07:00 +21°C° 0 mm 1 mps 740 mmHg 38%
    08:00 +22°C° 0 mm 1 mps 741 mmHg 35%
    09:00 +25°C° 0 mm 1 mps 740 mmHg 32%
    10:00 +27°C° 0 mm 1 mps 740 mmHg 28%
    11:00 +30°C° 0 mm 1 mps 740 mmHg 25%
    12:00 +30°C° 0 mm 1 mps 739 mmHg 24%
    13:00 +31°C° 0 mm 1 mps 738 mmHg 23%
    14:00 +31°C° 0 mm 1 mps 738 mmHg 22%
    15:00 +29°C° 0 mm 1 mps 738 mmHg 24%
    16:00 +27°C° 0 mm 1 mps 738 mmHg 27%
    17:00 +25°C° 0 mm 1 mps 738 mmHg 30%
    18:00 +24°C° 0 mm 1 mps 738 mmHg 31%
    19:00 +24°C° 0 mm 1 mps 739 mmHg 32%
    20:00 +23°C° 0 mm 1 mps 739 mmHg 33%
    21:00 +22°C° 0 mm 1 mps 739 mmHg 35%
    22:00 +21°C° 0 mm 1 mps 739 mmHg 36%
    23:00 +20°C° 0 mm 1 mps 739 mmHg 38%
    Show more